COSMOS 332

Satellite information

Favourite Embed

Satellite Type and Status

PAYLOADIN ORBIT

Key statistics

Satellite COSMOS 332 at a glance.

Uptime

20236

Days in orbit

Revolutions

≈ 14.5

Per day

Orbit

LEO

Low Earth Orbit

Inclination

74.0

Latest

Satellite identification and parameters

Extended collection of information and parameters for COSMOS 332.

Object identification

Identified? True

Debris? False

Object name: COSMOS 332

International designator: 1970-028A

Object number (NORAD): 4369

Object ID (CCSDS): 4369

Country: COMMONWEALTH OF INDEPENDENT STATES (CIS)

Current information (Y/N): Y

RCS size: LARGE

Orbital parameters

Period: 99.107 minutes

Inclination: 74.0341 deg

SMA: 7094.108 km

Apoapsis: 719.823 km

Periapsis: 712.123 km

RAAN: 84.8087 deg

Eccentricy: 0.00054269

Argument of periapsis: 7.4824 deg

Mean anomaly: 352.6418 deg

Mean motion: 14.52967978 rev/day

Mean motion (dot): 0.00000477 rev/day2

B* drag term: 0.00012252544 1/REarth

Two-line elements (TLE)

Creation date: Sept. 4, 2025, 10:13 a.m.

Reference frame: TEME

Reference center: EARTH

Epoch: Sept. 4, 2025, 12:25 a.m. UTC

TLE line 0: 0 COSMOS 332

TLE line 1: 1 04369U 70028A 25247.01799047 .00000477 00000-0 12253-3 0 9990

TLE line 2: 2 04369 74.0341 84.8087 0005427 7.4824 352.6418 14.52967978926533

Live tracking on map

Real-time ground track for satellite COSMOS 332.

In-orbit conjunctions

A list of the most updated potential collisions computed for object COSMOS 332.

Target Orbit TCA Probability of collision Miss distance Type
COSMOS 1275 DEB LEO 2024-12-21 19:11:49 0.000132782 284.0 (m) DEBRIS
IRIDIUM 33 DEB LEO 2024-09-01 02:03:28 0.000192409 115.0 (m) DEBRIS
FENGYUN 1C DEB SSO 2024-08-21 19:26:27 0.0001614215 580.0 (m) DEBRIS

Associated space launch

The first soviet navigation system called Tsiklon consisted of Zaliv satellites in low earth orbit.

COSMOS 332 was lifted into orbit during the mission ‘Kosmos-3M | Zaliv 5’, on board a Kosmos-3M space rocket.

The launch took place on April 11, 1970, 5 p.m. from 132/2.

For more information about the launch, click the button.

Launch to space Kosmos-3M | Zaliv 5
Kosmos-3M | Zaliv 5

Agency: N/A

Status: Launch Successful

Launch date: April 11, 1970, 5 p.m. UTC

Rocket: Kosmos-3M

Launch pad: 132/2

Location: Plesetsk Cosmodrome, Russian Federation

...

Latest news about this satellite

There are no fresh news available about this satellite. Check back as we update our databases every day.


Newsletter sign-up

Weekly statistics, charts and insights to help you stay on top of the space industry.